Location: Hains Lake
(37.8540°N, 99.8578°W)
Time: 05:02:07
(UTC+00:00)

Transit 2A - Pass Details

Date: 24 April 2021
Orbit: 602 x 957 km, 66.7° (Epoch: 13 May)

Event Time Altitude Azimuth Distance (km) Brightness Sun altitude
Rises 13:55:52 0° 255° (WSW) 3,036 8.5 23.4°
Reaches altitude 10° 13:59:24 10° 281° (WNW) 2,058 7.8 24.1°
Maximum altitude 14:01:43 14° 312° (NW) 1,796 7.6 24.5°
Drops below altitude 10° 14:03:58 10° 342° (NNW) 1,996 8.0 25.0°
Sets 14:07:18 0° 10° (N) 2,873 9.1 25.6°
